| time (UTC) | temp F | wind direction | speed MPH | gust MPH | rain 1hr in | rain 24hr in | rain mn in | humidity % | barometer mb |
| 20260505021519 | 50 | 257 | 16.0 | 20.0 | 0.00 | 0.00 | 0.00 | 77 | 1005.6 |
| 20260505020018 | 50 | 248 | 18.0 | 22.0 | 0.00 | 0.00 | 0.00 | 77 | 1005.5 |
| 20260505014517 | 50 | 254 | 17.0 | 22.0 | 0.00 | 0.00 | 0.00 | 77 | 1005.4 |
| 20260505013017 | 50 | 264 | 14.0 | 18.0 | 0.00 | 0.00 | 0.00 | 79 | 1005.4 |
| 20260505011517 | 49 | 258 | 15.0 | 18.0 | 0.00 | 0.00 | 0.00 | 79 | 1005.2 |
| 20260505010022 | 49 | 270 | 13.0 | 17.0 | 0.00 | 0.00 | 0.00 | 79 | 1005.1 |
| 20260505004515 | 49 | 253 | 15.0 | 17.0 | 0.00 | 0.00 | 0.00 | 78 | 1004.8 |
| 20260505003014 | 49 | 246 | 12.0 | 15.0 | 0.00 | 0.00 | 0.00 | 78 | 1004.7 |
| 20260505001515 | 49 | 250 | 9.0 | 10.0 | 0.00 | 0.00 | 0.00 | 80 | 1004.6 |
| 20260505000014 | 48 | 241 | 4.0 | 5.0 | 0.00 | 0.00 | 0.00 | 81 | 1004.5 |
| 20260504234513 | 48 | 233 | 3.0 | 6.0 | 0.00 | 0.00 | 0.00 | 80 | 1004.3 |
| 20260504233013 | 48 | 181 | 1.0 | 5.0 | 0.00 | 0.00 | 0.00 | 80 | 1004.1 |
| 20260504231512 | 48 | 180 | 2.0 | 4.0 | 0.00 | 0.00 | 0.00 | 79 | 1004.0 |
| 20260504230013 | 48 | 169 | 1.0 | 3.0 | 0.00 | 0.00 | 0.00 | 79 | 1003.9 |
| 20260504224514 | 49 | 187 | 1.0 | 3.0 | 0.00 | 0.00 | 0.00 | 78 | 1003.7 |
| 20260504223020 | 49 | 177 | 1.0 | 4.0 | 0.00 | 0.00 | 0.00 | 78 | 1003.6 |
| 20260504221510 | 49 | 173 | 1.0 | 4.0 | 0.00 | 0.00 | 0.00 | 78 | 1003.5 |
| 20260504220015 | 49 | 207 | 1.0 | 4.0 | 0.00 | 0.00 | 0.00 | 78 | 1003.6 |
| 20260504214511 | 50 | 163 | 1.0 | 4.0 | 0.00 | 0.00 | 0.00 | 77 | 1003.6 |
| 20260504213020 | 50 | 155 | 1.0 | 8.0 | 0.00 | 0.00 | 0.00 | 77 | 1003.5 |
| 20260504211508 | 49 | 171 | 3.0 | 5.0 | 0.00 | 0.00 | 0.00 | 77 | 1003.5 |
| 20260504210011 | 51 | 208 | 1.0 | 5.0 | 0.00 | 0.00 | 0.00 | 74 | 1003.4 |
| 20260504204522 | 52 | 208 | 0.0 | 4.0 | 0.00 | 0.00 | 0.00 | 75 | 1003.4 |
| 20260504203007 | 50 | 161 | 3.0 | 5.0 | 0.00 | 0.00 | 0.00 | 76 | 1003.5 |
| 20260504201506 | 50 | 236 | 3.0 | 7.0 | 0.00 | 0.00 | 0.00 | 75 | 1003.5 |
| 20260504200006 | 50 | 228 | 4.0 | 5.0 | 0.00 | 0.00 | 0.00 | 77 | 1003.4 |
| 20260504194505 | 50 | 247 | 6.0 | 7.0 | 0.00 | 0.00 | 0.00 | 74 | 1003.5 |
| 20260504193005 | 51 | 311 | 2.0 | 5.0 | 0.00 | 0.00 | 0.00 | 72 | 1003.7 |
| 20260504191503 | 49 | 275 | 9.0 | 13.0 | 0.00 | 0.00 | 0.00 | 78 | 1003.6 |
| 20260504190003 | 49 | 260 | 10.0 | 14.0 | 0.00 | 0.00 | 0.00 | 76 | 1003.6 |
| 20260504184502 | 49 | 256 | 13.0 | 16.0 | 0.00 | 0.00 | 0.00 | 75 | 1003.5 |
| 20260504183002 | 50 | 259 | 14.0 | 16.0 | 0.00 | 0.00 | 0.00 | 73 | 1003.5 |
| 20260504181502 | 51 | 271 | 8.0 | 16.0 | 0.00 | 0.00 | 0.00 | 70 | 1003.6 |
| 20260504180100 | 51 | 259 | 13.0 | 17.0 | 0.00 | 0.00 | 0.00 | 71 | 1003.5 |
| 20260504174614 | 50 | 275 | 4.0 | 11.0 | 0.00 | 0.01 | 0.00 | 75 | 1003.5 |
| 20260504173055 | 49 | 234 | 10.0 | 14.0 | 0.00 | 0.01 | 0.00 | 77 | 1003.2 |
| 20260504171555 | 48 | 231 | 13.0 | 18.0 | 0.00 | 0.01 | 0.00 | 77 | 1003.3 |
| 20260504081534 | 44 | 270 | 11.0 | 14.0 | 0.00 | 0.15 | 0.00 | 68 | 1005.7 |
| 20260504050022 | 44 | 271 | 8.0 | 10.0 | 0.00 | 0.17 | 0.00 | 73 | 1005.5 |
| 20260504044533 | 44 | 273 | 8.0 | 11.0 | 0.00 | 0.17 | 0.00 | 72 | 1005.4 |
| 20260504043023 | 43 | 277 | 6.0 | 8.0 | 0.00 | 0.17 | 0.00 | 74 | 1005.6 |
| 20260504041514 | 44 | 292 | 6.0 | 8.0 | 0.00 | 0.17 | 0.00 | 71 | 1005.5 |
| 20260504040012 | 44 | 273 | 8.0 | 11.0 | 0.00 | 0.17 | 0.17 | 68 | 1005.4 |
| 20260504034512 | 44 | 272 | 8.0 | 10.0 | 0.00 | 0.17 | 0.17 | 69 | 1005.2 |
| 20260504033011 | 44 | 275 | 7.0 | 10.0 | 0.00 | 0.17 | 0.17 | 68 | 1005.2 |
| 20260504031511 | 45 | 263 | 7.0 | 11.0 | 0.00 | 0.17 | 0.17 | 67 | 1005.2 |
| 20260504030010 | 45 | 278 | 4.0 | 8.0 | 0.00 | 0.17 | 0.17 | 66 | 1005.0 |
| 20260504024509 | 45 | 256 | 1.0 | 7.0 | 0.00 | 0.17 | 0.17 | 63 | 1004.9 |
| 20260504023009 | 45 | 242 | 1.0 | 8.0 | 0.00 | 0.17 | 0.17 | 61 | 1004.8 |